Regional Weather Roundup
Issued by NWS Kansas City/Pleasant Hill, MO

Home | Current Version | Previous Version | Text Only | Print | Product List | Glossary On
Versions: 1 2 3 4 5 6 7 8 9 10 11 12 13 14 15 16 17 18 19 20 21 22 23 24 25 26 27
000
ASUS43 KEAX 211210
RWREAX

WEATHER ROUNDUP FOR EASTERN KANSAS AND NORTHWEST MISSOURI
NATIONAL WEATHER SERVICE KANSAS CITY/PLEASANT HILL MO
600 AM CST TUE NOV 21 2017

KSZ040-057-103>105-MOZ028-029-037-043-211300-
...KANSAS CITY METROPOLITAN AREA...

CITY           SKY/WX    TMP DP  RH WIND       PRES   REMARKS
K.C. INTL      CLOUDY    47  32  56 W7        29.81R
6HR MIN TEMP:  41; 6HR MAX TEMP:  50;

K.C. DOWNTOWN  CLOUDY    49  32  52 W3        29.81R
6HR MIN TEMP:  48; 6HR MAX TEMP:  54;

LEES SUMMIT    CLOUDY    46  32  58 SW9       29.80R
6HR MIN TEMP:  46; 6HR MAX TEMP:  51;

OLATHE - IXD   CLOUDY    45  33  63 SW7       29.81R
6HR MIN TEMP:  43; 6HR MAX TEMP:  50;

OLATHE - OJC   CLOUDY    45  32  60 SW6       29.80R
6HR MIN TEMP:  45; 6HR MAX TEMP:  50;

LAWRENCE       CLOUDY    46  33  60 W3        29.82R

$$

MOZ001>008-011>017-020>025-030>033-038>040-044>046-053-054-211300-
...NORTHERN AND CENTRAL MISSOURI...

CITY           SKY/WX    TMP DP  RH WIND       PRES   REMARKS
ST. JOSEPH     CLOUDY    39  33  79 N7        29.84R WCI  34
6HR MIN TEMP:  31; 6HR MAX TEMP:  50;

MOSBY          CLOUDY    37  32  81 CALM      29.82R
WARRENSBURG    CLOUDY    45  32  61 SW7       29.80S
WHITEMAN AFB   CLEAR     45  33  61 SW7       29.77R
6HR MIN TEMP:  44; 6HR MAX TEMP:  50;

CLINTON        CLOUDY    46  34  61 MISG      29.82R
SEDALIA        MOCLDY    48  35  60 SW10      29.81R
6HR MIN TEMP:  48; 6HR MAX TEMP:  53;

WARSAW         NOT AVBL
CHILLICOTHE      N/A     37  31  78 CALM      29.82R
6HR MIN TEMP:  36; 6HR MAX TEMP:  49;

KIRKSVILLE     PTCLDY    42  32  67 W6        29.79R
6HR MIN TEMP:  42; 6HR MAX TEMP:  50;


$$

MOZ041-047>049-056>058-063>065-088>090-097-211300-
...EASTERN AND SOUTHERN MISSOURI...

CITY           SKY/WX    TMP DP  RH WIND       PRES   REMARKS
ST. LOUIS INTL MOCLDY    44  30  57 S5        29.83S
6HR MIN TEMP:  44; 6HR MAX TEMP:  48;

SPIRIT OF STL  PTCLDY    47  30  51 SW13      29.82S
COLUMBIA       PTCLDY    41  31  67 S6        29.81R
JEFFERSON CITY CLOUDY    45  31  58 E3        29.82R
ROLLA          PTCLDY    43  30  60 S16       29.83S
OSAGE BEACH    CLOUDY    40  31  70 SE6       29.84R
SPRINGFIELD    PTCLDY    42  32  67 S12       29.83S
BRANSON        PTCLDY    39  32  75 CALM      29.87S
JOPLIN         PTCLDY    45  33  63 S6        29.83R
WEST PLAINS    CLEAR     37  28  70 S6        29.90S WCI  32

$$

IAZ060-094-KSZ022-034>040-054-083-096-NEZ052-066-093-211300-
...KANSAS...SOUTHEAST NEBRASKA AND IOWA...

CITY           SKY/WX    TMP DP  RH WIND       PRES   REMARKS
TOPEKA         CLOUDY    45  34  65 W3        29.82R
6HR MIN TEMP:  44; 6HR MAX TEMP:  54;

MANHATTAN      CLOUDY    49  29  46 N5        29.85R
EMPORIA        CLOUDY    43  31  62 W3        29.81R
CHANUTE        CLOUDY    44  33  65 S7        29.82R
WICHITA        MOCLDY    37  31  78 SE5       29.78F WCI  33
OMAHA          LGT RAIN  39  27  62 N24G35    29.91R WCI  28
LINCOLN        CLOUDY    42  21  43 N13G25    29.98R
FALLS CITY     CLOUDY    46  28  49 N13G23    29.87R
LAMONI         CLOUDY    43  28  55 N15G26    29.83R
DES MOINES     CLOUDY    42  24  49 NW12      29.85R

$$





USA.gov is the U.S. government's official web portal to all federal, state and local government web resources and services.